Regional Weather Roundup
Issued by NWS Upton, NY

Current Version | Previous Version | Text Only | Print | Product List | Glossary On
Versions: 1 2 3 4 5 6 7 8 9 10 11 12 13 14 15 16 17 18 19 20 21 22 23 24 25 26 27 28 29 30 31 32 33 34 35 36 37 38 39 40 41 42 43 44 45 46 47 48 49 50
000
ASUS41 KOKX 232308
RWROKX

REGIONAL WEATHER ROUNDUP
NATIONAL WEATHER SERVICE NEW YORK NY
600 PM EST THU NOV 23 2017

NOTE: "FAIR" INDICATES FEW OR NO CLOUDS BELOW 12,000 FEET WITH NO
SIGNIFICANT WEATHER AND/OR OBSTRUCTIONS TO VISIBILITY.

NYZ071-072-176-178-NJZ106-104-240000-
NEW YORK CITY METRO AREA

CITY           SKY/WX    TMP DP  RH WIND       PRES   REMARKS
Central Park   CLEAR     41  19  41 W8        30.04R
Bronx Bot Gard   N/A     41  18  38 W5        30.03R
Bronx Lehman C   N/A     41  32  70 W3          N/A
LaGuardia APRT PTCLDY    43  20  39 W8        30.01S
Queens College NOT AVBL
Kennedy INTL   PTCLDY    36  25  64 SW8       30.03S WCI  30
Breezy Point   NOT AVBL
Brooklyn Coll    N/A     41  32  70 W6          N/A
Staten Island    N/A     39  32  75 SW3         N/A
Newark/Liberty PTCLDY    40  20  44 SW9       30.02S WCI  34
Teterboro      CLEAR     39  19  44 W6        30.01S WCI  35
$$

NYZ177-179-078>081-240000-
LONG ISLAND NEW YORK

CITY           SKY/WX    TMP DP  RH WIND       PRES   REMARKS
Jones Beach    NOT AVBL
Wantagh          N/A     39  32  75 W2          N/A
Matinecock PT    N/A     39 N/A N/A S5          N/A
Farmingdale    CLEAR     36  22  56 CALM      30.02S
MacArthur/ISP  PTCLDY    34  22  61 CALM      30.01S
Shirley        CLEAR     30  24  78 CALM      30.02S
Mt Sinai Harb  NOT AVBL
Westhampton    CLEAR     27  19  72 CALM      30.02F
East Hampton   FAIR      26  22  84 CALM      30.00S
Southold         N/A     34  32  93 SW3         N/A
Montauk          N/A     38  27  64 CALM      30.00F
$$

NYZ052-065-067-240000-
HUDSON VALLEY

CITY           SKY/WX    TMP DP  RH WIND       PRES   REMARKS
White Plains   CLEAR     32  20  61 CALM      29.99S
Larchmont Harb NOT AVBL
Croton On Huds   N/A     41 N/A N/A W8          N/A
Somers           N/A     36  32  87 CALM        N/A
Brewster         N/A     32  32 100 S1          N/A
Newburgh       CLEAR     34  21  60 W6        30.00S WCI  29
Montgomery     PTCLDY    36  19  50 W6        29.99R WCI  31
Suffern          N/A     36  32  87 SW1         N/A
Poughkeepsie   CLOUDY    32  19  58 CALM      30.00S
Albany         MOCLDY    30  20  66 CALM      30.00F
$$

NJZ001-105-106-008-010-013-015-019>022-104-240000-
NEW JERSEY

CITY           SKY/WX    TMP DP  RH WIND       PRES   REMARKS
Newark/Liberty PTCLDY    40  20  44 SW9       30.02S WCI  34
Teterboro      CLEAR     39  19  44 W6        30.01S WCI  35
Caldwell       CLEAR     35  20  54 CALM      30.03R
Somerville     CLEAR     32  22  66 CALM      30.02R
Linden         FAIR      40  19  43 CALM      30.03S
Perth Amboy    NOT AVBL
Sussex         CLOUDY    37  19  48 NW3       30.01R
Andover        NOT AVBL
Trenton        CLEAR     37  19  48 W5        30.04R WCI  33
Millville      CLEAR     29  25  85 CALM      30.07R
Atlantic City  PTCLDY    35  22  58 CALM      30.06R
Wrightstown    CLEAR     31  22  69 CALM      30.02R
Toms River     CLEAR     29  23  78 CALM      30.06R
Belmar         CLEAR     35  20  54 SW5       30.05R WCI  31
$$

PAZ047>061-062-071-240000-
EASTERN PENNSYLVANIA

CITY           SKY/WX    TMP DP  RH WIND       PRES   REMARKS
Philadelphia   PTCLDY    40  19  43 W10       30.06R WCI  33
Allentown      CLOUDY    33  19  56 SW7       30.03R WCI  27
Scranton       CLEAR     31  21  66 CALM      30.00S
$$

CTZ002-004>006-009-010-012-RIZ004-006-007-MAZ004-011-015-240000-
SOUTHERN NEW ENGLAND
 IN CT

CITY           SKY/WX    TMP DP  RH WIND       PRES   REMARKS
Bradley INTL   CLOUDY    32  18  56 NW8       30.00R WCI  25
Hartford       CLOUDY    39  18  42 CALM      30.00S
Danbury        PTCLDY    31  20  63 SW3       30.01R
Wtrbury/Oxford PTCLDY    31  19  61 CALM      29.99R
Norwalk Harbor NOT AVBL
Bridgeport     CLEAR     38  20  48 NW5       30.02R WCI  34
Meriden        PTCLDY    32  24  72 CALM      30.01R
New Haven      CLEAR     41  20  43 NW5       30.01R
Chester        FAIR      34  16  47 CALM      29.99R
Groton         CLEAR     34  24  67 CALM      29.99S
Wilimantic     CLOUDY    33  23  66 CALM      30.00R

 IN RI

CITY           SKY/WX    TMP DP  RH WIND       PRES   REMARKS
Providence     PTCLDY    37  22  54 W5        29.99S WCI  33
Block Island   CLEAR     38  26  62 W7        29.99F WCI  33
Westerly       CLEAR     33  24  69 CALM      29.99F
 IN MA

CITY           SKY/WX    TMP DP  RH WIND       PRES   REMARKS
Boston         MOCLDY    41  15  35 W7        29.98S
Worcester      PTCLDY    32  15  49 SW5       29.94S WCI  27
Westfield      CLEAR     35  18  49 W3        29.99R
Provincetown   CLEAR     28  23  81 CALM      29.99R
Nantucket      CLEAR     36  29  75 NW6       29.99S WCI  31
$$

ANZ330-335-338-340-345-350-353-355-240000-
COASTAL MARINE OBSERVATIONS


STATION/POSITION TIME  SKY/WX   TEMP    WIND        PRES    VSBY  WAVE
                                AIR SEA DIR/SP/G                  HT/PER
                 (UTC)          (F)     (DEG/KT/KT) (MB)    (MI)  (FT/S)
NY HARB ENTRANCE 2150            42 55  280/  8/ 12 1016.3          3/10
20 S FIRE ISLAND 2150            41 56  290/ 10/ 14 1016.9          3/11
GREAT SOUTH BAY  2230            40 46  290/  4/  6   N/A
HUDSON CANYON    2150            43 58  280/  8/ 12 1016.3          5/10
KINGS POINT      2224            43 49  310/  6/  7 1017.2
EXECUTION ROCKS  2230            43     260/  6/  8   N/A
WESTERN LI SOUND 2149            43     270/  4/  8   N/A           0
CENTRAL LI SOUND NOT AVBL
ROBBINS REEF     2224            42     230/  9/ 10 1017.2
$$


>>>>>>>>>>>>>>>>>>>>>>>>>>>> KEY <<<<<<<<<<<<<<<<<<<<<<<<<<<
>                                                          <
>     SKY/WX - Sky Condition/Present Weather               <
>     TMP    - Temperature in Fahrenheit                   <
>     DP     - Dew Point in Fahrenheit                     <
>     RH     - Relative Humidity in Percent                <
>     WIND   - Direction (from) and Speed in MPH           <
>     PRES   - Mean Sea Level Pressure (inches of Hg)      <
>     WCI    - Wind Chill Index                            <
>     VSB    - VISIBILITY IN MILES                         <
>     HX     - HEAT INDEX                                  <
>     TC     - TEMPERATURE IN CELSIUS                      <
>     VRB    - VARIABLE WIND DIRECTION                     <
>                                                          <
>>>>>>>>>>>>>>>>>>>>>>>>>>>> KEY <<<<<<<<<<<<<<<<<<<<<<<<<<<



USA.gov is the U.S. government's official web portal to all federal, state and local government web resources and services.